Regional Weather Roundup
Issued by NWS Spokane, WA

Home | Current Version | Previous Version | Text Only | Print | Product List | Glossary On
Versions: 1 2 3 4 5 6 7 8 9 10 11 12 13 14 15 16 17 18 19 20 21 22 23 24 25 26 27 28 29 30 31 32 33 34 35 36 37 38 39 40 41 42 43 44 45 46 47 48 49 50
362
NZUS01 KOTX 202125
RWROTX

Eastern Washington/Northern Idaho Roundup
National Weather Service, Spokane WA
100 PM PST MON NOV 20 2017

Note: "fair" indicated few or no clouds below 12,000 feet with no
significant weather and/or obstructions to visibility.

...Northeast Washington and Northern Idaho Panhandle...

CITY           SKY/WX    TMP DP  RH WIND       PRES   REMARKS
Spokane Intl   CLOUDY    43  43 100 S15       29.62F
Spokane Downto LGT RAIN  46  43  89 E7        29.63F FOG
Deer Park      HVY RAIN  41  41 100 NE6       29.65R VSB 1
Sandpoint      RAIN      37  37 100 N5        29.71R
Bonners Ferry  LGT RAIN  37  37 100 CALM      29.70F

...Southeast Washington and southern Idaho Panhandle...

CITY           SKY/WX    TMP DP  RH WIND       PRES   REMARKS
Walla Walla    LGT RAIN  53  49  86 W21       29.72R
Pullman/Moscow LGT RAIN  43  40  89 E13       29.71R FOG
Lewiston       CLOUDY    48  44  86 VRB3      29.71R
Lowell           N/A     39  37  92 CALM      29.81F
Grangeville    FAIR      48  36  61 S24G39    29.69F

...Columbia Basin...

CITY           SKY/WX    TMP DP  RH WIND       PRES   REMARKS
Ephrata        PTSUNNY   46  39  76 NW3       29.65R
Moses Lake     MOSUNNY   47  43  86 S7        29.64R
Pasco          PTSUNNY   60  51  72 SW22G31   29.68R
Richland       PTCLDY    61  52  72 SW12G24   29.69R
Hermiston      LGT RAIN  51  50  96 S13       29.74R
Pendleton      HVY RAIN  48  46  93 W22G31    29.75R FOG

...East Slopes Cascades...

CITY           SKY/WX    TMP DP  RH WIND       PRES   REMARKS
The Dalles     SUNNY     56  48  74 W6        29.77R
Yakima         MOSUNNY   56  46  69 CALM      29.69R
Ellensburg     MOSUNNY   49  40  71 NW15      29.69R
Stampede Pass  FOG       35  31  85 VRB5      29.71R VSB 1/2
Wenatchee      PTSUNNY   42  38  85 NW10      29.67R
Omak           CLOUDY    40  39  97 N9        29.67R
Chelan           N/A     39  34  81 NE5         N/A
Sunnyside      CLEAR     56  46  68 SW12G26   29.70R

...Southern British Columbia...

CITY           SKY/WX    TMP DP  RH WIND       PRES   REMARKS
Penticton      LGT RAIN  39  37  93 N3        29.70R
Castlegar      LGT RAIN  37  36  93 S3        29.71S
Cranbrook      PTSUNNY   39  32  75 VRB2      29.68R
Osoyoos          N/A     39  36  87 NW6         N/A
Creston          N/A     37  37 100 E1          N/A

...Western Montana...

CITY           SKY/WX    TMP DP  RH WIND       PRES   REMARKS
Kalispell      LGT RAIN  41  39  93 SE12      29.71F
Libby            N/A     37  37 100 CALM      29.70R
Missoula       LGT RAIN  39  38  96 VRB3      29.74F

...Neighboring Cities...

CITY           SKY/WX    TMP DP  RH WIND       PRES   REMARKS
Seattle        CLOUDY    48  46  93 SW8       29.80R
Portland       PTSUNNY   54  49  83 CALM      29.85R
Boise          CLOUDY    46  39  76 SE18G29   29.93F
Great Falls    CLOUDY    37  26  64 NE16      29.72R
Calgary        FLURRIES  21  16  79 NE10      29.79R WCI  10



USA.gov is the U.S. government's official web portal to all federal, state and local government web resources and services.